Regional Weather Roundup
Issued by NWS

Home | Current Version | Previous Version | Graphics & Text | Print | Product List | Glossary On
Versions: 1 2 3 4 5 6 7 8 9 10 11 12 13 14 15 16 17 18 19 20 21 22 23 24 25 26 27 28 29 30 31 32 33 34 35 36 37 38 39 40 41 42 43 44 45 46 47 48 49 50
000
ASUS43 KFSD 280110
RWRSD

WEATHER ROUNDUP FOR SOUTH DAKOTA
NATIONAL WEATHER SERVICE SIOUX FALLS SD
800 PM CDT SAT MAY 27 2017

NOTE: "FAIR" INDICATES FEW OR NO CLOUDS BELOW 12,000 FEET WITH NO
SIGNIFICANT WEATHER AND/OR OBSTRUCTIONS TO VISIBILITY.


SDZ001>005-009-010-012>017-280200-
NORTHWEST AND NORTH CENTRAL SOUTH DAKOTA

CITY           SKY/WX    TMP DP  RH WIND       PRES   REMARKS
BUFFALO          N/A     63  44  50 W12       29.92R
FAITH            N/A     61  47  59 N13       29.93
MOBRIDGE       MOSUNNY   68  40  35 W9        29.82F
$$

SDZ012>016-024>037-041>051-057-063-072>074-280200-
SOUTHWEST AND SOUTH CENTRAL SOUTH DAKOTA

CITY           SKY/WX    TMP DP  RH WIND       PRES   REMARKS
RAPID CTY ARPT PTSUNNY   68  34  28 NW14      30.00R
PIERRE         MOSUNNY   71  39  31 NW10      29.88R
CUSTER         SUNNY     58  29  33 NW9G20    30.10S
ELLSWORTH AFB  MOSUNNY   67  35  30 NW17G25   29.99R
PHILIP         MOSUNNY   69  38  32 NW10      29.93S
PINE RIDGE     SUNNY     65  42  43 W5        30.03S
SPEARFISH      FAIR      59  41  51 W9        30.05R
WINNER         FAIR      70  47  43 SW9       29.92S
$$

SDZ004>011-016>023-039-040-280200-
NORTHEAST SOUTH DAKOTA

CITY           SKY/WX    TMP DP  RH WIND       PRES   REMARKS
ABERDEEN       CLOUDY    69  37  30 N10       29.81R
WATERTOWN      MOCLDY    63  46  54 SW14      29.85S
BROOKINGS      PTCLDY    64  48  56 W7        29.91R
SISSETON         N/A     70  46  42 SW13      29.78F
$$

SDZ017-020-022-023-036>040-048>070-280200-
SOUTHEAST SOUTH DAKOTA

CITY           SKY/WX    TMP DP  RH WIND       PRES   REMARKS
SIOUX FALLS    CLOUDY    65  50  58 W3        29.91R
HURON          MOCLDY    69  42  37 W8        29.85S
CHAMBERLAIN    CLOUDY    71  48  44 SW6       29.90S
MITCHELL       CLOUDY    69  47  45 SW9       29.90S
YANKTON        CLOUDY    63  54  72 SW7       29.93S
$$

ABBREVIATIONS USED IN REMARKS
   TC - TEMPERATURE IN CELSIUS
  WCI - WIND CHILL INDEX
   HX - HEAT INDEX
  VSB - VISIBILITY




USA.gov is the U.S. government's official web portal to all federal, state and local government web resources and services.